Time,TemperatureF,DewpointF,PressureIn,WindDirection,WindDirectionDegrees,WindSpeedMPH,WindSpeedGustMPH,Humidity,HourlyPrecipIn,Conditions,Clouds,dailyrainin,SoftwareType,DateUTC
2013-04-30 00:02:00,55.0,11.0,-100.00,WNW,293,2.0,5.0,17,0.00,,,0.00,,2013-04-30 06:02:00,
2013-04-30 00:12:00,55.0,11.0,-100.00,WNW,293,2.0,5.0,17,0.00,,,0.00,,2013-04-30 06:12:00,
2013-04-30 00:21:00,55.0,11.0,-100.00,WNW,293,2.0,5.0,17,0.00,,,0.00,,2013-04-30 06:21:00,
2013-04-30 00:32:00,55.0,11.0,-100.00,WNW,293,2.0,5.0,17,0.00,,,0.00,,2013-04-30 06:32:00,
2013-04-30 00:40:00,56.0,10.0,-100.00,WNW,300,3.0,7.0,16,0.00,,,0.00,,2013-04-30 06:40:00,
2013-04-30 01:01:00,56.0,10.0,-100.00,WNW,300,3.0,7.0,16,0.00,,,0.00,,2013-04-30 07:01:00,
2013-04-30 01:11:00,56.0,10.0,-100.00,WNW,300,3.0,7.0,16,0.00,,,0.00,,2013-04-30 07:11:00,
2013-04-30 01:21:00,56.0,10.0,-100.00,WNW,300,3.0,7.0,16,0.00,,,0.00,,2013-04-30 07:21:00,
2013-04-30 01:31:00,56.0,10.0,-100.00,WNW,300,3.0,7.0,16,0.00,,,0.00,,2013-04-30 07:31:00,
2013-04-30 01:40:00,53.0,12.0,-100.00,WNW,288,2.0,5.0,19,0.00,,,0.00,,2013-04-30 07:40:00,
2013-04-30 02:02:00,53.0,12.0,-100.00,WNW,288,2.0,5.0,19,0.00,,,0.00,,2013-04-30 08:02:00,
2013-04-30 02:11:00,53.0,12.0,-100.00,WNW,288,2.0,5.0,19,0.00,,,0.00,,2013-04-30 08:11:00,
2013-04-30 02:22:00,53.0,12.0,-100.00,WNW,288,2.0,5.0,19,0.00,,,0.00,,2013-04-30 08:22:00,
2013-04-30 02:32:00,53.0,12.0,-100.00,WNW,288,2.0,5.0,19,0.00,,,0.00,,2013-04-30 08:32:00,
2013-04-30 02:40:00,49.0,11.0,-100.00,WNW,298,2.0,5.0,21,0.00,,,0.00,,2013-04-30 08:40:00,
2013-04-30 03:01:00,49.0,11.0,-100.00,WNW,298,2.0,5.0,21,0.00,,,0.00,,2013-04-30 09:01:00,
2013-04-30 03:11:00,49.0,11.0,-100.00,WNW,298,2.0,5.0,21,0.00,,,0.00,,2013-04-30 09:11:00,
2013-04-30 03:22:00,49.0,11.0,-100.00,WNW,298,2.0,5.0,21,0.00,,,0.00,,2013-04-30 09:22:00,
2013-04-30 03:33:00,49.0,11.0,-100.00,WNW,298,2.0,5.0,21,0.00,,,0.00,,2013-04-30 09:33:00,
2013-04-30 03:40:00,49.0,11.0,-100.00,WNW,282,2.0,6.0,21,0.00,,,0.00,,2013-04-30 09:40:00,
2013-04-30 04:03:00,49.0,11.0,-100.00,WNW,282,2.0,6.0,21,0.00,,,0.00,,2013-04-30 10:03:00,
2013-04-30 04:12:00,49.0,11.0,-100.00,WNW,282,2.0,6.0,21,0.00,,,0.00,,2013-04-30 10:12:00,
2013-04-30 04:22:00,49.0,11.0,-100.00,WNW,282,2.0,6.0,21,0.00,,,0.00,,2013-04-30 10:22:00,
2013-04-30 04:32:00,49.0,11.0,-100.00,WNW,282,2.0,6.0,21,0.00,,,0.00,,2013-04-30 10:32:00,
2013-04-30 04:40:00,49.0,11.0,-100.00,WNW,297,1.0,4.0,21,0.00,,,0.00,,2013-04-30 10:40:00,
2013-04-30 05:02:00,49.0,11.0,-100.00,WNW,297,1.0,4.0,21,0.00,,,0.00,,2013-04-30 11:02:00,
2013-04-30 05:11:00,49.0,11.0,-100.00,WNW,297,1.0,4.0,21,0.00,,,0.00,,2013-04-30 11:11:00,
2013-04-30 05:21:00,49.0,11.0,-100.00,WNW,297,1.0,4.0,21,0.00,,,0.00,,2013-04-30 11:21:00,
2013-04-30 05:31:00,49.0,11.0,-100.00,WNW,297,1.0,4.0,21,0.00,,,0.00,,2013-04-30 11:31:00,
2013-04-30 05:40:00,47.0,11.0,-100.00,West,278,2.0,5.0,23,0.00,,,0.00,,2013-04-30 11:40:00,
2013-04-30 06:01:00,47.0,11.0,-100.00,West,278,2.0,5.0,23,0.00,,,0.00,,2013-04-30 12:01:00,
2013-04-30 06:11:00,47.0,11.0,-100.00,West,278,2.0,5.0,23,0.00,,,0.00,,2013-04-30 12:11:00,
2013-04-30 06:21:00,47.0,11.0,-100.00,West,278,2.0,5.0,23,0.00,,,0.00,,2013-04-30 12:21:00,
2013-04-30 06:31:00,47.0,11.0,-100.00,West,278,2.0,5.0,23,0.00,,,0.00,,2013-04-30 12:31:00,
2013-04-30 07:40:00,59.0,14.0,-100.00,NE,48,1.0,5.0,17,-99.99,,,0.00,,2013-04-30 13:40:00,
2013-04-30 08:02:00,59.0,14.0,-100.00,NE,48,1.0,5.0,17,-99.99,,,0.00,,2013-04-30 14:02:00,
2013-04-30 08:11:00,59.0,14.0,-100.00,NE,48,1.0,5.0,17,-99.99,,,0.00,,2013-04-30 14:11:00,
2013-04-30 08:21:00,59.0,14.0,-100.00,NE,48,1.0,5.0,17,-99.99,,,0.00,,2013-04-30 14:21:00,
2013-04-30 08:31:00,59.0,14.0,-100.00,NE,48,1.0,5.0,17,-99.99,,,0.00,,2013-04-30 14:31:00,
2013-04-30 08:40:00,64.0,15.0,-100.00,East,100,4.0,7.0,15,0.00,,,0.00,,2013-04-30 14:40:00,
2013-04-30 09:01:00,64.0,15.0,-100.00,East,100,4.0,7.0,15,0.00,,,0.00,,2013-04-30 15:01:00,
2013-04-30 09:11:00,64.0,15.0,-100.00,East,100,4.0,7.0,15,0.00,,,0.00,,2013-04-30 15:11:00,
2013-04-30 09:21:00,64.0,15.0,-100.00,East,100,4.0,7.0,15,0.00,,,0.00,,2013-04-30 15:21:00,
2013-04-30 09:32:00,64.0,15.0,-100.00,East,100,4.0,7.0,15,0.00,,,0.00,,2013-04-30 15:32:00,
2013-04-30 09:40:00,68.0,15.0,-100.00,East,99,6.0,10.0,13,0.00,,,0.00,,2013-04-30 15:40:00,
2013-04-30 10:02:00,68.0,15.0,-100.00,East,99,6.0,10.0,13,0.00,,,0.00,,2013-04-30 16:02:00,
2013-04-30 10:12:00,68.0,15.0,-100.00,East,99,6.0,10.0,13,0.00,,,0.00,,2013-04-30 16:12:00,
2013-04-30 10:23:00,68.0,15.0,-100.00,East,99,6.0,10.0,13,0.00,,,0.00,,2013-04-30 16:23:00,
2013-04-30 10:33:00,68.0,15.0,-100.00,East,99,6.0,10.0,13,0.00,,,0.00,,2013-04-30 16:33:00,
2013-04-30 10:40:00,71.0,14.0,-100.00,East,100,5.0,10.0,11,0.00,,,0.00,,2013-04-30 16:40:00,
2013-04-30 11:02:00,71.0,14.0,-100.00,East,100,5.0,10.0,11,0.00,,,0.00,,2013-04-30 17:02:00,
2013-04-30 11:12:00,71.0,14.0,-100.00,East,100,5.0,10.0,11,0.00,,,0.00,,2013-04-30 17:12:00,
2013-04-30 11:22:00,71.0,14.0,-100.00,East,100,5.0,10.0,11,0.00,,,0.00,,2013-04-30 17:22:00,
2013-04-30 11:32:00,71.0,14.0,-100.00,East,100,5.0,10.0,11,0.00,,,0.00,,2013-04-30 17:32:00,
2013-04-30 11:40:00,76.0,16.0,-100.00,SE,138,7.0,14.0,10,0.00,,,0.00,,2013-04-30 17:40:00,
2013-04-30 12:01:00,76.0,16.0,-100.00,SE,138,7.0,14.0,10,0.00,,,0.00,,2013-04-30 18:01:00,
2013-04-30 12:11:00,76.0,16.0,-100.00,SE,138,7.0,14.0,10,0.00,,,0.00,,2013-04-30 18:11:00,
2013-04-30 12:22:00,76.0,16.0,-100.00,SE,138,7.0,14.0,10,0.00,,,0.00,,2013-04-30 18:22:00,
2013-04-30 12:32:00,76.0,16.0,-100.00,SE,138,7.0,14.0,10,0.00,,,0.00,,2013-04-30 18:32:00,
2013-04-30 12:40:00,77.0,14.0,-100.00,WSW,258,9.0,21.0,9,0.00,,,0.00,,2013-04-30 18:40:00,
2013-04-30 13:01:00,77.0,14.0,-100.00,WSW,258,9.0,21.0,9,0.00,,,0.00,,2013-04-30 19:01:00,
2013-04-30 13:11:00,77.0,14.0,-100.00,WSW,258,9.0,21.0,9,0.00,,,0.00,,2013-04-30 19:11:00,
2013-04-30 13:22:00,77.0,14.0,-100.00,WSW,258,9.0,21.0,9,0.00,,,0.00,,2013-04-30 19:22:00,
2013-04-30 13:32:00,77.0,14.0,-100.00,WSW,258,9.0,21.0,9,0.00,,,0.00,,2013-04-30 19:32:00,
2013-04-30 13:40:00,80.0,13.0,-100.00,West,271,7.0,20.0,8,0.00,,,0.00,,2013-04-30 19:40:00,
2013-04-30 14:02:00,80.0,13.0,-100.00,West,271,7.0,20.0,8,0.00,,,0.00,,2013-04-30 20:02:00,
2013-04-30 14:11:00,80.0,13.0,-100.00,West,271,7.0,20.0,8,0.00,,,0.00,,2013-04-30 20:11:00,
2013-04-30 14:21:00,80.0,13.0,-100.00,West,271,7.0,20.0,8,0.00,,,0.00,,2013-04-30 20:21:00,
2013-04-30 14:32:00,80.0,13.0,-100.00,West,271,7.0,20.0,8,0.00,,,0.00,,2013-04-30 20:32:00,
2013-04-30 14:40:00,79.0,13.0,-100.00,WSW,248,7.0,21.0,8,0.00,,,0.00,,2013-04-30 20:40:00,
2013-04-30 15:02:00,79.0,13.0,-100.00,WSW,248,7.0,21.0,8,0.00,,,0.00,,2013-04-30 21:02:00,
2013-04-30 15:11:00,79.0,13.0,-100.00,WSW,248,7.0,21.0,8,0.00,,,0.00,,2013-04-30 21:11:00,
2013-04-30 15:22:00,79.0,13.0,-100.00,WSW,248,7.0,21.0,8,0.00,,,0.00,,2013-04-30 21:22:00,
2013-04-30 15:32:00,79.0,13.0,-100.00,WSW,248,7.0,21.0,8,0.00,,,0.00,,2013-04-30 21:32:00,
2013-04-30 15:40:00,80.0,13.0,-100.00,WSW,243,8.0,25.0,8,0.00,,,0.00,,2013-04-30 21:40:00,
2013-04-30 16:02:00,80.0,13.0,-100.00,WSW,243,8.0,25.0,8,0.00,,,0.00,,2013-04-30 22:02:00,
2013-04-30 16:12:00,80.0,13.0,-100.00,WSW,243,8.0,25.0,8,0.00,,,0.00,,2013-04-30 22:12:00,
2013-04-30 16:23:00,80.0,13.0,-100.00,WSW,243,8.0,25.0,8,0.00,,,0.00,,2013-04-30 22:23:00,
2013-04-30 16:32:00,80.0,13.0,-100.00,WSW,243,8.0,25.0,8,0.00,,,0.00,,2013-04-30 22:32:00,
2013-04-30 16:40:00,80.0,10.0,-100.00,SW,229,11.0,24.0,7,0.00,,,0.00,,2013-04-30 22:40:00,
2013-04-30 17:02:00,80.0,10.0,-100.00,SW,229,11.0,24.0,7,0.00,,,0.00,,2013-04-30 23:02:00,
2013-04-30 17:12:00,80.0,10.0,-100.00,SW,229,11.0,24.0,7,0.00,,,0.00,,2013-04-30 23:12:00,
2013-04-30 17:22:00,80.0,10.0,-100.00,SW,229,11.0,24.0,7,0.00,,,0.00,,2013-04-30 23:22:00,
2013-04-30 17:32:00,80.0,10.0,-100.00,SW,229,11.0,24.0,7,0.00,,,0.00,,2013-04-30 23:32:00,
2013-04-30 17:40:00,78.0,9.0,-100.00,WSW,249,10.0,19.0,7,0.00,,,0.00,,2013-04-30 23:40:00,
2013-04-30 18:02:00,78.0,9.0,-100.00,WSW,249,10.0,19.0,7,0.00,,,0.00,,2013-05-01 00:02:00,
2013-04-30 18:11:00,78.0,9.0,-100.00,WSW,249,10.0,19.0,7,0.00,,,0.00,,2013-05-01 00:11:00,
2013-04-30 18:22:00,78.0,9.0,-100.00,WSW,249,10.0,19.0,7,0.00,,,0.00,,2013-05-01 00:22:00,
2013-04-30 18:32:00,78.0,9.0,-100.00,WSW,249,10.0,19.0,7,0.00,,,0.00,,2013-05-01 00:32:00,
2013-04-30 18:40:00,74.0,9.0,-100.00,WSW,254,7.0,21.0,8,0.00,,,0.00,,2013-05-01 00:40:00,
2013-04-30 19:01:00,74.0,9.0,-100.00,WSW,254,7.0,21.0,8,0.00,,,0.00,,2013-05-01 01:01:00,
2013-04-30 19:11:00,74.0,9.0,-100.00,WSW,254,7.0,21.0,8,0.00,,,0.00,,2013-05-01 01:11:00,
2013-04-30 19:21:00,74.0,9.0,-100.00,WSW,254,7.0,21.0,8,0.00,,,0.00,,2013-05-01 01:21:00,
2013-04-30 19:31:00,74.0,9.0,-100.00,WSW,254,7.0,21.0,8,0.00,,,0.00,,2013-05-01 01:31:00,
2013-04-30 19:40:00,70.0,9.0,-100.00,West,274,4.0,17.0,9,0.00,,,0.00,,2013-05-01 01:40:00,
2013-04-30 20:02:00,70.0,9.0,-100.00,West,274,4.0,17.0,9,0.00,,,0.00,,2013-05-01 02:02:00,
2013-04-30 20:11:00,70.0,9.0,-100.00,West,274,4.0,17.0,9,0.00,,,0.00,,2013-05-01 02:11:00,
2013-04-30 20:21:00,70.0,9.0,-100.00,West,274,4.0,17.0,9,0.00,,,0.00,,2013-05-01 02:21:00,
2013-04-30 20:32:00,70.0,9.0,-100.00,West,274,4.0,17.0,9,0.00,,,0.00,,2013-05-01 02:32:00,
2013-04-30 20:40:00,67.0,9.0,-100.00,WNW,282,4.0,14.0,10,0.00,,,0.00,,2013-05-01 02:40:00,
2013-04-30 21:02:00,67.0,9.0,-100.00,WNW,282,4.0,14.0,10,0.00,,,0.00,,2013-05-01 03:02:00,
2013-04-30 21:11:00,67.0,9.0,-100.00,WNW,282,4.0,14.0,10,0.00,,,0.00,,2013-05-01 03:11:00,
2013-04-30 21:21:00,67.0,9.0,-100.00,WNW,282,4.0,14.0,10,0.00,,,0.00,,2013-05-01 03:21:00,
2013-04-30 21:33:00,67.0,9.0,-100.00,WNW,282,4.0,14.0,10,0.00,,,0.00,,2013-05-01 03:33:00,
2013-04-30 21:40:00,67.0,9.0,-100.00,West,275,8.0,20.0,10,0.00,,,-99.99,,2013-05-01 03:40:00,
2013-04-30 22:03:00,67.0,9.0,-100.00,West,275,8.0,20.0,10,0.00,,,-99.99,,2013-05-01 04:03:00,
2013-04-30 22:12:00,67.0,9.0,-100.00,West,275,8.0,20.0,10,0.00,,,-99.99,,2013-05-01 04:12:00,
2013-04-30 22:22:00,67.0,9.0,-100.00,West,275,8.0,20.0,10,0.00,,,-99.99,,2013-05-01 04:22:00,
2013-04-30 22:32:00,67.0,9.0,-100.00,West,275,8.0,20.0,10,0.00,,,-99.99,,2013-05-01 04:32:00,
2013-04-30 22:40:00,66.0,8.0,-100.00,West,263,9.0,22.0,10,0.00,,,0.00,,2013-05-01 04:40:00,
2013-04-30 23:02:00,66.0,8.0,-100.00,West,263,9.0,22.0,10,0.00,,,0.00,,2013-05-01 05:02:00,
2013-04-30 23:11:00,66.0,8.0,-100.00,West,263,9.0,22.0,10,0.00,,,0.00,,2013-05-01 05:11:00,
2013-04-30 23:21:00,66.0,8.0,-100.00,West,263,9.0,22.0,10,0.00,,,0.00,,2013-05-01 05:21:00,
2013-04-30 23:32:00,66.0,8.0,-100.00,West,263,9.0,22.0,10,0.00,,,0.00,,2013-05-01 05:32:00,
2013-04-30 23:40:00,64.0,8.0,-100.00,West,267,10.0,23.0,11,0.00,,,0.00,,2013-05-01 05:40:00,